• In Spain
  • List of Countries
  • For 7 days
  • Water Temperature
  • Satellite Maps
  • Weather Map
  • Weather Widgets
  • user-avatar
    Login

    Hourly Weather Golubica

    Today, 26 September, Wednesday

    Time Temperature Precipitation Wind Pressure Humidity
    00:00 +5°C° 0 mm 4 mps 750 mmHg 80%
    01:00 +5°C° 0 mm 4 mps 750 mmHg 83%
    02:00 +5°C° 0 mm 2 mps 751 mmHg 90%
    03:00 +3°C° 0 mm 3 mps 751 mmHg 91%
    04:00 +3°C° 0 mm 3 mps 752 mmHg 92%
    05:00 +3°C° 0 mm 3 mps 752 mmHg 93%
    06:00 +3°C° 0 mm 4 mps 753 mmHg 89%
    07:00 +4°C° 0 mm 4 mps 753 mmHg 85%
    08:00 +5°C° 0 mm 4 mps 754 mmHg 79%
    09:00 +6°C° 0 mm 4 mps 754 mmHg 72%
    10:00 +7°C° 0 mm 4 mps 755 mmHg 65%
    11:00 +8°C° 0 mm 4 mps 755 mmHg 58%
    12:00 +10°C° 0 mm 4 mps 755 mmHg 55%
    13:00 +10°C° 0 mm 4 mps 755 mmHg 52%
    14:00 +11°C° 0 mm 4 mps 755 mmHg 49%
    15:00 +10°C° 0 mm 4 mps 755 mmHg 54%
    16:00 +9°C° 0 mm 3 mps 754 mmHg 58%
    17:00 +8°C° 0 mm 3 mps 754 mmHg 63%
    18:00 +8°C° 0 mm 3 mps 754 mmHg 65%
    19:00 +6°C° 0 mm 4 mps 754 mmHg 67%
    20:00 +6°C° 0 mm 4 mps 754 mmHg 70%
    21:00 +6°C° 0 mm 5 mps 753 mmHg 68%
    22:00 +5°C° 0 mm 6 mps 753 mmHg 66%
    23:00 +5°C° 0 mm 6 mps 752 mmHg 65%

    Tomorrow, 27 September, Thursday

    Time Temperature Precipitation Wind Pressure Humidity
    00:00 +5°C° 0 mm 7 mps 751 mmHg 63%
    01:00 +5°C° 0 mm 8 mps 751 mmHg 61%
    02:00 +6°C° 0 mm 8 mps 750 mmHg 59%
    03:00 +5°C° 0.2 mm 9 mps 749 mmHg 62%
    04:00 +5°C° 0.2 mm 9 mps 748 mmHg 65%
    05:00 +5°C° 0.2 mm 10 mps 747 mmHg 67%
    06:00 +5°C° 0.2 mm 10 mps 746 mmHg 71%
    07:00 +5°C° 0.2 mm 10 mps 746 mmHg 74%
    08:00 +5°C° 0.2 mm 10 mps 745 mmHg 78%
    09:00 +6°C° 0.2 mm 10 mps 745 mmHg 80%
    10:00 +6°C° 0.2 mm 10 mps 745 mmHg 82%
    11:00 +6°C° 0.2 mm 9 mps 745 mmHg 84%
    12:00 +7°C° 0.1 mm 9 mps 745 mmHg 84%
    13:00 +9°C° 0.1 mm 8 mps 745 mmHg 84%
    14:00 +9°C° 0.1 mm 8 mps 745 mmHg 84%
    15:00 +10°C° 0.1 mm 7 mps 745 mmHg 84%
    16:00 +10°C° 0.1 mm 7 mps 745 mmHg 84%
    17:00 +10°C° 0.1 mm 6 mps 746 mmHg 84%
    18:00 +9°C° 0.1 mm 6 mps 746 mmHg 87%
    19:00 +9°C° 0.1 mm 6 mps 746 mmHg 89%
    20:00 +9°C° 0.1 mm 5 mps 747 mmHg 92%
    21:00 +8°C° 0 mm 5 mps 747 mmHg 91%
    22:00 +8°C° 0 mm 4 mps 747 mmHg 91%
    23:00 +7°C° 0 mm 4 mps 747 mmHg 91%

    Day after tomorrow, 28 September, Friday

    Time Temperature Precipitation Wind Pressure Humidity
    00:00 +7°C° 0 mm 4 mps 748 mmHg 92%
    01:00 +7°C° 0 mm 4 mps 748 mmHg 92%
    02:00 +6°C° 0 mm 4 mps 748 mmHg 93%
    03:00 +6°C° 0 mm 4 mps 747 mmHg 93%
    04:00 +6°C° 0 mm 5 mps 747 mmHg 94%
    05:00 +6°C° 0 mm 5 mps 747 mmHg 94%
    06:00 +7°C° 0 mm 6 mps 746 mmHg 89%
    07:00 +8°C° 0 mm 7 mps 746 mmHg 85%
    08:00 +10°C° 0 mm 8 mps 746 mmHg 80%
    09:00 +11°C° 0 mm 8 mps 745 mmHg 76%
    10:00 +13°C° 0 mm 9 mps 745 mmHg 72%
    11:00 +16°C° 0 mm 9 mps 744 mmHg 67%
    12:00 +16°C° 0 mm 9 mps 744 mmHg 66%
    13:00 +17°C° 0 mm 9 mps 743 mmHg 66%
    14:00 +18°C° 0 mm 9 mps 743 mmHg 65%
    15:00 +17°C° 0.1 mm 9 mps 743 mmHg 69%
    16:00 +16°C° 0.1 mm 8 mps 743 mmHg 74%
    17:00 +15°C° 0.1 mm 7 mps 742 mmHg 78%
    18:00 +15°C° 0.1 mm 7 mps 743 mmHg 80%
    19:00 +14°C° 0.1 mm 6 mps 743 mmHg 82%
    20:00 +13°C° 0.1 mm 6 mps 744 mmHg 84%
    21:00 +12°C° 0 mm 5 mps 744 mmHg 83%
    22:00 +11°C° 0 mm 4 mps 745 mmHg 83%
    23:00 +10°C° 0 mm 3 mps 745 mmHg 82%

    29 September, Saturday

    Time Temperature Precipitation Wind Pressure Humidity
    00:00 +9°C° 0 mm 3 mps 746 mmHg 85%
    01:00 +8°C° 0 mm 3 mps 746 mmHg 88%
    02:00 +7°C° 0 mm 2 mps 747 mmHg 90%
    03:00 +6°C° 0 mm 2 mps 747 mmHg 90%
    04:00 +6°C° 0 mm 2 mps 747 mmHg 90%
    05:00 +5°C° 0 mm 2 mps 747 mmHg 90%
    06:00 +6°C° 0 mm 2 mps 748 mmHg 85%
    07:00 +6°C° 0 mm 2 mps 748 mmHg 80%
    08:00 +7°C° 0 mm 2 mps 748 mmHg 74%
    09:00 +8°C° 0 mm 2 mps 749 mmHg 68%
    10:00 +9°C° 0 mm 3 mps 749 mmHg 61%
    11:00 +10°C° 0 mm 3 mps 749 mmHg 55%
    12:00 +10°C° 0 mm 3 mps 749 mmHg 53%
    13:00 +11°C° 0 mm 3 mps 749 mmHg 52%
    14:00 +11°C° 0 mm 3 mps 749 mmHg 50%
    15:00 +10°C° 0 mm 3 mps 750 mmHg 53%
    16:00 +10°C° 0 mm 3 mps 750 mmHg 55%
    17:00 +9°C° 0 mm 2 mps 750 mmHg 58%
    18:00 +8°C° 0 mm 2 mps 751 mmHg 59%
    19:00 +8°C° 0 mm 2 mps 751 mmHg 60%
    20:00 +7°C° 0 mm 2 mps 752 mmHg 60%
    21:00 +7°C° 0 mm 2 mps 752 mmHg 63%
    22:00 +6°C° 0 mm 2 mps 752 mmHg 66%
    23:00 +5°C° 0 mm 2 mps 753 mmHg 69%

    30 September, Sunday

    Time Temperature Precipitation Wind Pressure Humidity
    00:00 +5°C° 0 mm 2 mps 753 mmHg 71%
    01:00 +4°C° 0 mm 2 mps 753 mmHg 73%
    02:00 +4°C° 0 mm 2 mps 754 mmHg 75%
    03:00 +4°C° 0 mm 2 mps 754 mmHg 77%
    04:00 +4°C° 0 mm 1 mps 754 mmHg 78%
    05:00 +4°C° 0 mm 1 mps 755 mmHg 79%
    06:00 +5°C° 0 mm 1 mps 755 mmHg 75%
    07:00 +6°C° 0 mm 1 mps 755 mmHg 70%
    08:00 +8°C° 0 mm 1 mps 756 mmHg 66%
    09:00 +9°C° 0 mm 1 mps 756 mmHg 61%
    10:00 +10°C° 0 mm 1 mps 756 mmHg 55%
    11:00 +12°C° 0 mm 1 mps 756 mmHg 50%
    12:00 +12°C° 0 mm 2 mps 755 mmHg 49%
    13:00 +12°C° 0 mm 2 mps 755 mmHg 47%
    14:00 +13°C° 0 mm 2 mps 755 mmHg 46%
    15:00 +12°C° 0 mm 2 mps 755 mmHg 50%
    16:00 +10°C° 0 mm 2 mps 755 mmHg 55%
    17:00 +9°C° 0 mm 2 mps 755 mmHg 59%
    18:00 +8°C° 0 mm 2 mps 755 mmHg 61%
    19:00 +8°C° 0 mm 2 mps 755 mmHg 63%
    20:00 +7°C° 0 mm 2 mps 755 mmHg 65%
    21:00 +6°C° 0 mm 2 mps 755 mmHg 66%
    22:00 +6°C° 0 mm 2 mps 755 mmHg 67%
    23:00 +6°C° 0 mm 2 mps 755 mmHg 68%

    1 October, Monday

    Time Temperature Precipitation Wind Pressure Humidity
    00:00 +5°C° 0 mm 2 mps 755 mmHg 69%
    01:00 +5°C° 0 mm 2 mps 755 mmHg 70%
    02:00 +5°C° 0 mm 2 mps 755 mmHg 71%
    03:00 +5°C° 0 mm 2 mps 755 mmHg 71%
    04:00 +4°C° 0 mm 2 mps 755 mmHg 72%
    05:00 +4°C° 0 mm 2 mps 755 mmHg 72%
    06:00 +5°C° 0 mm 2 mps 755 mmHg 69%
    07:00 +6°C° 0 mm 2 mps 755 mmHg 65%
    08:00 +8°C° 0 mm 3 mps 755 mmHg 62%
    09:00 +9°C° 0 mm 3 mps 754 mmHg 57%
    10:00 +11°C° 0 mm 3 mps 754 mmHg 51%
    11:00 +12°C° 0 mm 3 mps 754 mmHg 46%
    12:00 +13°C° 0 mm 3 mps 754 mmHg 44%
    13:00 +13°C° 0 mm 3 mps 753 mmHg 42%
    14:00 +14°C° 0 mm 3 mps 753 mmHg 40%
    15:00 +13°C° 0 mm 2 mps 753 mmHg 43%
    16:00 +12°C° 0 mm 2 mps 752 mmHg 47%
    17:00 +10°C° 0 mm 2 mps 752 mmHg 50%
    18:00 +9°C° 0 mm 2 mps 752 mmHg 50%
    19:00 +8°C° 0 mm 2 mps 752 mmHg 50%
    20:00 +7°C° 0 mm 2 mps 752 mmHg 50%
    21:00 +7°C° 0 mm 2 mps 752 mmHg 50%
    22:00 +6°C° 0 mm 2 mps 752 mmHg 51%
    23:00 +6°C° 0 mm 2 mps 752 mmHg 51%
    Show more